[[{"header":{"parameterUnit":"m.s-1","parameterCategory":1,"la1":30.2991,"la2":30.254,"lo1":-89.0895,"lo2":-89.0444,"dy":0.0017,"dx":0.0017,"nx":28,"ny":28,"refTime":"2025-04-14T03:00:00:Z","depth":0,"parameterNumber":2,"parameterNumberName":"U-component_of_WINDS"},"data":[0,0,0,0,0,0,0,0,0,0,0,0,0,0,0,0,0,0,0,0,0,0,0,0,0,0,0,0,0,0,0,0,0,0,0,0,0,0,0,0,0,0,0,0,0,0,0,0,0,0,0,0,0,0,0,0,0,0,0.6004,0.6005,0,0.6011,0.6011,0.6011,0.6036,0.6036,0.6037,0.6037,0.6041,0.604,0.604,0,0,0,0,0,0,0,0,0,0,0,0,0,0.6012,0.6012,0.6004,0.6005,0.6005,0.6011,0.6011,0.6011,0.6035,0.6036,0.6037,0.6038,0.6041,0.604,0.604,0,0,0,0,0,0,0,0,0,0,0,0,0,0.6012,0.6011,0.6004,0.6018,0.6019,0.6011,0.6011,0.6011,0.6035,0.6036,0.6037,0.6038,0.6041,0.6041,0.604,0.6018,0,0,0.6038,0.6038,0,0,0,0,0,0,0,0,0.6012,0.6012,0.6016,0.6017,0.6018,0.6023,0.6015,0.6013,0.6035,0.6029,0.6037,0.6038,0.6034,0.6034,0.6033,0.6019,0.6019,0.6038,0.6037,0.6037,0.6037,0,0,0,0,0,0,0,0.6012,0.6012,0.6007,0.6016,0.6017,0.6023,0.6024,0.6015,0.6027,0.603,0.6031,0.6032,0.6035,0.6034,0.6034,0.6019,0.6038,0.6037,0.6037,0.6037,0.5987,0.5986,0,0,0,0,0,0,0.6011,0.6012,0.6007,0.6007,0.6017,0.6022,0.6023,0.6021,0.6027,0.6029,0.6031,0.6033,0.6035,0.6034,0.6034,0.6008,0.6037,0.6036,0.6036,0.5988,0.5987,0.5986,0,0,0,0,0,0,0.6011,0.601,0.6006,0.601,0.601,0.6021,0.6018,0.602,0.6019,0.6028,0.603,0.6028,0.6035,0.6035,0.6022,0.6009,0.6036,0.6036,0.5989,0.5987,0.5986,0.5958,0,0,0,0,0,0,0.6011,0.601,0.6002,0.601,0.601,0.5995,0.6017,0.602,0.6018,0.6021,0.6026,0.6027,0.6036,0.6023,0.6022,0.6009,0.6035,0.599,0.5988,0.5987,0.596,0.5956,0.5952,0,0,0,0,0,0.6011,0.5993,0.6002,0.6001,0.6,0.5994,0.5994,0.6006,0.6017,0.6009,0.6015,0.6027,0.6011,0.6022,0.602,0.6007,0.5991,0.5989,0.5987,0.5962,0.5957,0.5952,0,0,0,0,0,0,0.5983,0.5995,0.6004,0.5988,0.599,0.5999,0.5989,0.6,0.5998,0.6,0.6013,0.6014,0.6,0.6002,0.6014,0.5986,0.6003,0.6001,0.5985,0.598,0.5976,0.5975,0.6034,0,0,0,0,0,0.5975,0.597,0.598,0.5966,0.5966,0.5977,0.5975,0.5984,0.5986,0.5987,0.5992,0.5993,0.5988,0.5984,0.5981,0.5961,0.5962,0.5952,0.5948,0.5944,0.5941,0.5931,0.5926,0.5979,0.5979,0.5979,0,0,0.5958,0.5964,0.596,0.596,0.5963,0.5956,0.5978,0.597,0.5965,0.5985,0.5974,0.5978,0.598,0.5964,0.5957,0.5965,0.5927,0.5942,0.5939,0.5938,0.5928,0.5923,0.5918,0.5977,0.5978,0.5978,0,0,0.5924,0.5929,0.5917,0.5919,0.5924,0.5931,0.5928,0.5936,0.5939,0.5928,0.5943,0.5937,0.5929,0.593,0.5929,0.5897,0.5907,0.5896,0.5874,0.5863,0.5859,0.5855,0.5843,0.5838,0.5893,0.5893,0.5893,0,0.5902,0.5894,0.5909,0.59,0.59,0.5919,0.5907,0.5908,0.5911,0.5909,0.592,0.591,0.5913,0.5897,0.5889,0.5888,0.5885,0.5894,0.5859,0.5855,0.5852,0.584,0.5835,0.5891,0.5891,0.5892,0.5892,0,0.5867,0.5861,0.5851,0.5853,0.5852,0.5841,0.5854,0.585,0.586,0.5866,0.5855,0.5859,0.5857,0.5854,0.5863,0.5839,0.5844,0.5857,0.5873,0.5845,0.5834,0.5829,0.5889,0.589,0.589,0.589,0,0,0.5813,0.5825,0.5821,0.5822,0.5829,0.5824,0.5815,0.5814,0.581,0.5811,0.5803,0.5796,0.5808,0.5807,0.5816,0.5807,0.578,0.5821,0.5821,0.5811,0.5754,0.5743,0.5737,0.5788,0.5788,0.5787,0.5753,0,0.5779,0.5764,0.5777,0.5759,0.5753,0.5773,0.5765,0.5768,0.5774,0.577,0.5777,0.5771,0.5787,0.5787,0.5779,0.5785,0.5769,0.5788,0.5779,0.5779,0.5776,0.5732,0.572,0.5688,0.5749,0.5748,0.5748,0,0.5737,0.5738,0.5719,0.5727,0.5726,0.5718,0.5718,0.5714,0.5718,0.5723,0.5723,0.5735,0.5725,0.5744,0.573,0.5743,0.5741,0.5743,0.5743,0.574,0.576,0.5726,0.5678,0.5672,0.5741,0.5742,0.5742,0,0.5697,0.5694,0.5682,0.5683,0.5693,0.5687,0.5691,0.5696,0.5694,0.5694,0.5693,0.5691,0.569,0.5688,0.5699,0.5712,0.5684,0.5704,0.5687,0.5687,0.5678,0.5678,0.5626,0.568,0.568,0.568,0.568,0,0.5657,0.5644,0.5664,0.5657,0.5643,0.566,0.5646,0.5651,0.5656,0.5649,0.5667,0.566,0.5676,0.5671,0.568,0.5667,0.5667,0.567,0.5672,0.5667,0.5666,0.5664,0.5665,0.5679,0.5679,0.568,0.568,0,0.5609,0.5622,0.5611,0.5622,0.5624,0.5614,0.5623,0.5616,0.5625,0.5616,0.5615,0.5628,0.5623,0.5635,0.5631,0.5637,0.5618,0.5625,0.5617,0.5618,0.56,0.5601,0.5543,0.5536,0.5596,0.5595,0.5595,0,0.5581,0.5572,0.5583,0.558,0.5583,0.5579,0.5578,0.5594,0.5592,0.5596,0.5589,0.5586,0.5583,0.5575,0.5583,0.558,0.5586,0.5566,0.5585,0.5581,0.5583,0.5583,0.5581,0.5561,0.556,0.556,0.5559,0,0.553,0.5537,0.5535,0.5536,0.5534,0.5535,0.5537,0.5534,0.5551,0.5548,0.5543,0.5542,0.5539,0.5535,0.5535,0.5538,0.5551,0.5554,0.5549,0.5543,0.5538,0.5539,0.5604,0.5554,0.5555,0.5555,0.5555,0.5555,0.549,0.5483,0.5489,0.5487,0.549,0.5492,0.5486,0.5495,0.5492,0.5491,0.5501,0.5494,0.5499,0.55,0.5502,0.5497,0.5506,0.55,0.5498,0.5496,0.5492,0.5541,0.5497,0.5497,0.5497,0.5498,0.5498,0,0.5438,0.5444,0.5441,0.5444,0.5442,0.5457,0.546,0.5456,0.5451,0.5455,0.5453,0.5448,0.5445,0.5454,0.5452,0.5446,0.5451,0.5444,0.5443,0.5444,0.5485,0.5488,0.544,0.544,0.544,0.544,0.544,0.544,0.5411,0.5399,0.5407,0.5397,0.5403,0.5397,0.5398,0.5399,0.5403,0.5397,0.5394,0.5401,0.5407,0.5405,0.5403,0.5406,0.5403,0.5393,0.5398,0.5435,0.5441,0.5446,0.5449,0.5393,0.5393,0.5357,0.5357,0.5356]},{"header":{"parameterUnit":"m.s-1","parameterCategory":1,"la1":30.2991,"la2":30.254,"lo1":-89.0895,"lo2":-89.0444,"dy":0.0017,"dx":0.0017,"nx":28,"ny":28,"refTime":"2025-04-14T03:00:00:Z","depth":0,"parameterNumber":3,"parameterNumberName":"V-component_of_WINDS"},"data":[0,0,0,0,0,0,0,0,0,0,0,0,0,0,0,0,0,0,0,0,0,0,0,0,0,0,0,0,0,0,0,0,0,0,0,0,0,0,0,0,0,0,0,0,0,0,0,0,0,0,0,0,0,0,0,0,0,0,-4.6423,-4.6424,0,-4.6493,-4.6494,-4.6494,-4.6399,-4.6395,-4.6392,-4.6389,-4.6456,-4.6461,-4.6466,0,0,0,0,0,0,0,0,0,0,0,0,0,-4.6205,-4.6209,-4.6423,-4.6424,-4.6425,-4.6493,-4.6494,-4.6495,-4.6399,-4.6395,-4.6391,-4.6387,-4.6454,-4.646,-4.6466,0,0,0,0,0,0,0,0,0,0,0,0,0,-4.6289,-4.6211,-4.6423,-4.6386,-4.6383,-4.6493,-4.6494,-4.6495,-4.64,-4.6395,-4.639,-4.6385,-4.6452,-4.646,-4.6467,-4.6615,0,0,-4.649,-4.6493,0,0,0,0,0,0,0,0,-4.6285,-4.6298,-4.6391,-4.6389,-4.6386,-4.6432,-4.6441,-4.6535,-4.6402,-4.6394,-4.6389,-4.6383,-4.6452,-4.6459,-4.6483,-4.6618,-4.6621,-4.649,-4.6495,-4.6498,-4.65,0,0,0,0,0,0,0,-4.6279,-4.6294,-4.6451,-4.6392,-4.6389,-4.6364,-4.6371,-4.6458,-4.645,-4.6394,-4.6387,-4.6397,-4.645,-4.6476,-4.6484,-4.6622,-4.649,-4.6497,-4.6501,-4.6504,-4.6883,-4.6888,0,0,0,0,0,0,-4.6278,-4.629,-4.6448,-4.6453,-4.6322,-4.6373,-4.638,-4.6422,-4.6449,-4.6449,-4.6401,-4.6392,-4.6466,-4.6475,-4.6486,-4.6662,-4.6498,-4.6505,-4.6509,-4.6877,-4.6884,-4.689,0,0,0,0,0,0,-4.6274,-4.6293,-4.6446,-4.637,-4.6387,-4.6382,-4.643,-4.6426,-4.6453,-4.6455,-4.6452,-4.643,-4.6462,-4.6476,-4.6584,-4.6663,-4.6508,-4.6515,-4.6871,-4.6879,-4.6887,-4.7015,0,0,0,0,0,0,-4.6268,-4.6292,-4.6349,-4.6372,-4.6392,-4.6544,-4.6435,-4.6431,-4.6467,-4.6455,-4.6481,-4.6481,-4.6459,-4.6574,-4.6592,-4.6671,-4.6521,-4.6864,-4.6875,-4.6884,-4.7004,-4.7027,-4.7047,0,0,0,0,0,-4.626,-4.6382,-4.6353,-4.6372,-4.6463,-4.6549,-4.656,-4.6534,-4.6473,-4.653,-4.6531,-4.648,-4.6651,-4.6586,-4.6605,-4.6687,-4.6859,-4.6871,-4.6884,-4.6995,-4.7023,-4.7046,0,0,0,0,0,0,-4.6367,-4.6384,-4.6352,-4.6484,-4.6516,-4.6533,-4.6604,-4.6565,-4.6614,-4.6601,-4.6565,-4.6572,-4.6689,-4.6698,-4.6625,-4.6833,-4.6745,-4.6762,-4.6822,-4.6849,-4.687,-4.6866,-4.6527,0,0,0,0,0,-4.6406,-4.6476,-4.6486,-4.6601,-4.6619,-4.6609,-4.6646,-4.6623,-4.6654,-4.6667,-4.6676,-4.6707,-4.6768,-4.6809,-4.6864,-4.7005,-4.7009,-4.7071,-4.7092,-4.711,-4.7125,-4.7201,-4.7229,-4.6931,-4.6931,-4.6931,0,0,-4.6487,-4.6505,-4.6551,-4.6623,-4.6646,-4.6718,-4.6621,-4.6701,-4.6754,-4.6678,-4.6782,-4.679,-4.6822,-4.6948,-4.7004,-4.696,-4.7208,-4.7126,-4.714,-4.7146,-4.7217,-4.7245,-4.727,-4.694,-4.6938,-4.6937,0,0,-4.6672,-4.6692,-4.6792,-4.6816,-4.6852,-4.6844,-4.6868,-4.6891,-4.6894,-4.6998,-4.6943,-4.7005,-4.711,-4.7136,-4.7163,-4.7359,-4.7313,-4.7378,-4.749,-4.7564,-4.7587,-4.7608,-4.7679,-4.7705,-4.7393,-4.7393,-4.7393,0,-4.6768,-4.6876,-4.6847,-4.6932,-4.6966,-4.6902,-4.7002,-4.7026,-4.7078,-4.7102,-4.7052,-4.7185,-4.7201,-4.7333,-4.7381,-4.7404,-4.743,-4.7375,-4.7587,-4.7607,-4.7626,-4.7693,-4.772,-4.7401,-4.74,-4.7399,-4.7398,0,-4.6993,-4.7069,-4.7144,-4.7198,-4.724,-4.7332,-4.7316,-4.7362,-4.7335,-4.7333,-4.744,-4.7458,-4.7518,-4.7546,-4.7521,-4.7675,-4.7647,-4.7592,-4.7504,-4.7662,-4.7725,-4.775,-4.7412,-4.7409,-4.7407,-4.7405,0,0,-4.7247,-4.7285,-4.7313,-4.7337,-4.7372,-4.7429,-4.7518,-4.7577,-4.7618,-4.7655,-4.7729,-4.782,-4.7771,-4.7801,-4.7778,-4.7843,-4.7998,-4.778,-4.7781,-4.7822,-4.817,-4.8212,-4.8242,-4.7968,-4.7973,-4.7977,-4.8168,0,-4.7433,-4.7589,-4.7566,-4.7716,-4.7786,-4.7726,-4.7803,-4.7833,-4.7833,-4.7891,-4.789,-4.7956,-4.7885,-4.7903,-4.7965,-4.7967,-4.8068,-4.7952,-4.8036,-4.804,-4.8032,-4.8275,-4.8319,-4.8498,-4.8192,-4.8196,-4.8199,0,-4.7671,-4.772,-4.7878,-4.7903,-4.7931,-4.8001,-4.8055,-4.8111,-4.8143,-4.8138,-4.8173,-4.8138,-4.8226,-4.8135,-4.8256,-4.8178,-4.8211,-4.8217,-4.8223,-4.8231,-4.813,-4.829,-4.8555,-4.8582,-4.8237,-4.8234,-4.8231,0,-4.7843,-4.7947,-4.8056,-4.8078,-4.8109,-4.816,-4.8175,-4.8202,-4.824,-4.8285,-4.8309,-4.8364,-4.8395,-4.8438,-4.8418,-4.8354,-4.8543,-4.845,-4.8542,-4.8543,-4.8585,-4.8583,-4.886,-4.8604,-4.8604,-4.8603,-4.8603,0,-4.8054,-4.8153,-4.8134,-4.82,-4.8309,-4.8281,-4.8389,-4.8397,-4.8421,-4.8488,-4.8438,-4.8501,-4.8471,-4.8532,-4.8517,-4.862,-4.8633,-4.8632,-4.8627,-4.8637,-4.8638,-4.8659,-4.8647,-4.8611,-4.8609,-4.8608,-4.8606,0,-4.8265,-4.8256,-4.837,-4.8391,-4.8398,-4.8478,-4.8495,-4.8557,-4.8554,-4.8639,-4.8657,-4.8651,-4.872,-4.8704,-4.8779,-4.8769,-4.8899,-4.8878,-4.8889,-4.8885,-4.8978,-4.897,-4.9279,-4.9319,-4.9036,-4.9039,-4.9041,0,-4.8401,-4.8476,-4.8506,-4.8548,-4.8568,-4.8635,-4.8674,-4.8649,-4.8691,-4.8733,-4.879,-4.8855,-4.8906,-4.9019,-4.9021,-4.9078,-4.9058,-4.9163,-4.9066,-4.9075,-4.9062,-4.9058,-4.9066,-4.9182,-4.9186,-4.9188,-4.919,0,-4.8644,-4.8636,-4.8695,-4.8753,-4.8801,-4.8845,-4.8883,-4.892,-4.8898,-4.8947,-4.9019,-4.9058,-4.9136,-4.9201,-4.9254,-4.9268,-4.9226,-4.9221,-4.9245,-4.9257,-4.9262,-4.9262,-4.8943,-4.9214,-4.9212,-4.921,-4.9209,-4.9208,-4.8823,-4.8888,-4.8919,-4.8987,-4.9013,-4.9051,-4.9111,-4.9116,-4.9175,-4.9238,-4.9218,-4.9299,-4.9329,-4.9396,-4.9417,-4.9479,-4.944,-4.9475,-4.9484,-4.9493,-4.9506,-4.9251,-4.9488,-4.9488,-4.9487,-4.9486,-4.9486,0,-4.9065,-4.9083,-4.9145,-4.9202,-4.9255,-4.9212,-4.9252,-4.9299,-4.9372,-4.9404,-4.9456,-4.9537,-4.9601,-4.9608,-4.9667,-4.9716,-4.9698,-4.9732,-4.9729,-4.9733,-4.9537,-4.9511,-4.9746,-4.9746,-4.9746,-4.9746,-4.9746,-4.9746,-4.9197,-4.9305,-4.9301,-4.9421,-4.9437,-4.9518,-4.9545,-4.958,-4.9605,-4.97,-4.9753,-4.9757,-4.9779,-4.984,-4.9896,-4.9896,-4.9921,-4.9963,-4.9956,-4.9773,-4.9747,-4.9722,-4.9698,-4.9968,-4.9969,-5.0148,-5.0149,-5.0151]}]]